| time (UTC) | temp C | wind direction | speed KPH | gust KPH | rain 1hr cm | rain 24hr cm | rain mn cm | humidity % | barometer mb |
| 20260504023552 | 10 | 225 | 20.9 | 0.0 | 0.00 | 0.00 | 0.00 | 1013.8 | |
| 20260504022538 | 10 | 225 | 12.9 | 0.0 | 0.00 | 0.00 | 0.00 | 1013.7 | |
| 20260504021524 | 11 | 270 | 9.7 | 0.0 | 0.00 | 0.00 | 0.00 | 1013.8 | |
| 20260504020511 | 10 | 270 | 16.1 | 0.0 | 0.00 | 0.00 | 0.00 | 1013.8 | |
| 20260504015457 | 10 | 270 | 17.7 | 0.0 | 0.00 | 0.00 | 0.00 | 1013.9 | |
| 20260504014443 | 10 | 270 | 12.9 | 0.0 | 0.00 | 0.00 | 0.00 | 1013.9 | |
| 20260504013430 | 10 | 270 | 16.1 | 0.0 | 0.00 | 0.00 | 0.00 | 1013.8 | |
| 20260504012416 | 11 | 225 | 12.9 | 0.0 | 0.00 | 0.00 | 0.00 | 1013.9 | |
| 20260504011403 | 11 | 270 | 27.4 | 0.0 | 0.00 | 0.00 | 0.00 | 1013.6 | |
| 20260504010349 | 11 | 270 | 16.1 | 0.0 | 0.00 | 0.00 | 0.00 | 1013.8 | |
| 20260504005335 | 11 | 225 | 17.7 | 0.0 | 0.00 | 0.00 | 0.00 | 1013.9 | |
| 20260504004322 | 11 | 270 | 14.5 | 0.0 | 0.00 | 0.00 | 0.00 | 1013.9 | |
| 20260504003308 | 11 | 225 | 11.3 | 0.0 | 0.00 | 0.00 | 0.00 | 1014.0 | |
| 20260504002254 | 12 | 270 | 19.3 | 0.0 | 0.00 | 0.00 | 0.00 | 1013.9 | |
| 20260504001241 | 12 | 225 | 25.7 | 0.0 | 0.00 | 0.00 | 0.00 | 1013.9 | |
| 20260504000227 | 12 | 270 | 14.5 | 0.0 | 0.00 | 0.00 | 0.00 | 1013.8 | |
| 20260503235214 | 12 | 225 | 12.9 | 0.0 | 0.00 | 0.00 | 0.00 | 1013.8 | |
| 20260503234200 | 12 | 225 | 19.3 | 0.0 | 0.00 | 0.00 | 0.00 | 1013.9 | |
| 20260503233146 | 12 | 225 | 14.5 | 0.0 | 0.00 | 0.00 | 0.00 | 1013.7 | |
| 20260503232133 | 12 | 225 | 17.7 | 0.0 | 0.00 | 0.00 | 0.00 | 1013.9 | |
| 20260503231119 | 12 | 225 | 16.1 | 0.0 | 0.00 | 0.00 | 0.00 | 1013.8 | |
| 20260503230106 | 12 | 225 | 17.7 | 0.0 | 0.00 | 0.00 | 0.00 | 1013.8 | |
| 20260503225052 | 12 | 225 | 27.4 | 0.0 | 0.00 | 0.00 | 0.00 | 1013.8 | |
| 20260503224038 | 12 | 225 | 19.3 | 0.0 | 0.00 | 0.00 | 0.00 | 1013.8 | |
| 20260503222913 | 12 | 180 | 24.1 | 0.0 | 0.00 | 0.00 | 0.00 | 1013.8 | |
| 20260503221859 | 12 | 225 | 20.9 | 0.0 | 0.00 | 0.00 | 0.00 | 1013.9 | |
| 20260503220845 | 12 | 225 | 8.0 | 0.0 | 0.00 | 0.00 | 0.00 | 1014.2 | |
| 20260503215832 | 12 | 180 | 8.0 | 0.0 | 0.00 | 0.00 | 0.00 | 1014.1 | |
| 20260503214818 | 12 | 180 | 9.7 | 0.0 | 0.00 | 0.00 | 0.00 | 1014.1 | |
| 20260503213804 | 12 | 225 | 8.0 | 0.0 | 0.00 | 0.00 | 0.00 | 1014.3 | |
| 20260503212751 | 12 | 225 | 14.5 | 0.0 | 0.00 | 0.00 | 0.00 | 1014.4 | |
| 20260503211737 | 12 | 225 | 6.4 | 0.0 | 0.00 | 0.00 | 0.00 | 1014.5 | |
| 20260503210724 | 13 | 180 | 6.4 | 0.0 | 0.00 | 0.00 | 0.00 | 1014.5 | |
| 20260503205710 | 13 | 0.0 | 0.0 | 0.00 | 0.00 | 0.00 | 1014.6 | ||
| 20260503204656 | 12 | 0.0 | 0.0 | 0.00 | 0.00 | 0.00 | 1014.6 | ||
| 20260503203643 | 12 | 0.0 | 0.0 | 0.00 | 0.00 | 0.00 | 1014.6 | ||
| 20260503202629 | 13 | 180 | 9.7 | 0.0 | 0.00 | 0.00 | 0.00 | 1014.5 | |
| 20260503201615 | 13 | 180 | 9.7 | 0.0 | 0.00 | 0.00 | 0.00 | 1014.4 | |
| 20260503200602 | 13 | 225 | 12.9 | 0.0 | 0.00 | 0.00 | 0.00 | 1014.4 | |
| 20260503195548 | 12 | 225 | 14.5 | 0.0 | 0.00 | 0.00 | 0.00 | 1014.1 | |
| 20260503194535 | 12 | 225 | 12.9 | 0.0 | 0.00 | 0.00 | 0.00 | 1014.0 | |
| 20260503193521 | 12 | 225 | 17.7 | 0.0 | 0.00 | 0.00 | 0.00 | 1013.9 | |
| 20260503192507 | 13 | 225 | 9.7 | 0.0 | 0.00 | 0.00 | 0.00 | 1013.9 | |
| 20260503191454 | 13 | 225 | 9.7 | 0.0 | 0.00 | 0.00 | 0.00 | 1013.8 | |
| 20260503190440 | 13 | 225 | 12.9 | 0.0 | 0.00 | 0.00 | 0.00 | 1013.7 | |
| 20260503185426 | 13 | 225 | 16.1 | 0.0 | 0.00 | 0.00 | 0.00 | 1013.7 | |
| 20260503184413 | 13 | 225 | 19.3 | 0.0 | 0.00 | 0.00 | 0.00 | 1013.6 | |
| 20260503183359 | 13 | 225 | 19.3 | 0.0 | 0.00 | 0.00 | 0.00 | 1013.5 | |
| 20260503182346 | 14 | 225 | 17.7 | 0.0 | 0.00 | 0.00 | 0.00 | 1013.4 | |
| 20260503181332 | 14 | 225 | 24.1 | 0.0 | 0.00 | 0.00 | 0.00 | 1013.4 | |
| 20260503180318 | 15 | 225 | 22.5 | 0.0 | 0.00 | 0.00 | 0.00 | 1013.3 | |
| 20260503175305 | 15 | 225 | 22.5 | 0.0 | 0.00 | 0.00 | 0.00 | 1013.3 | |
| 20260503174251 | 15 | 180 | 14.5 | 0.0 | 0.00 | 0.00 | 0.00 | 1013.4 | |
| 20260503173237 | 15 | 180 | 14.5 | 0.0 | 0.00 | 0.00 | 0.00 | 1013.4 | |
| 20260503172224 | 15 | 180 | 14.5 | 0.0 | 0.00 | 0.00 | 0.00 | 1013.3 | |
| 20260503171210 | 16 | 225 | 17.7 | 0.0 | 0.00 | 0.00 | 0.00 | 1013.2 | |
| 20260503170157 | 16 | 180 | 12.9 | 0.0 | 0.00 | 0.00 | 0.00 | 1013.4 | |
| 20260503150927 | 17 | 0.0 | 0.0 | 0.00 | 0.00 | 0.00 | 1014.2 | ||
| 20260503130643 | 16 | 225 | 11.3 | 0.0 | 0.00 | 0.00 | 0.00 | 1014.8 | |
| 20260503110359 | 20 | 225 | 22.5 | 0.0 | 0.00 | 0.00 | 0.00 | 1015.7 | |
| 20260503100238 | 20 | 225 | 22.5 | 0.0 | 0.00 | 0.00 | 0.00 | 1015.7 | |
| 20260503090116 | 19 | 225 | 14.5 | 0.0 | 0.00 | 0.00 | 0.00 | 1016.1 | |
| 20260503081008 | 18 | 225 | 12.9 | 0.0 | 0.00 | 0.00 | 0.00 | 1016.0 | |
| 20260503072913 | 15 | 225 | 22.5 | 0.0 | 0.00 | 0.00 | 0.00 | 1015.8 | |
| 20260503071900 | 15 | 225 | 12.9 | 0.0 | 0.00 | 0.00 | 0.00 | 1015.9 | |
| 20260503070846 | 15 | 225 | 19.3 | 0.0 | 0.00 | 0.00 | 0.00 | 1015.9 | |
| 20260503054657 | 12 | 225 | 22.5 | 0.0 | 0.00 | 0.00 | 0.00 | 1015.3 | |
| 20260503053643 | 12 | 225 | 19.3 | 0.0 | 0.00 | 0.00 | 0.00 | 1015.3 | |
| 20260503052630 | 12 | 225 | 32.2 | 0.0 | 0.00 | 0.00 | 0.00 | 1014.9 | |
| 20260503051616 | 12 | 225 | 46.7 | 0.0 | 0.00 | 0.00 | 0.00 | 1014.6 | |
| 20260503050602 | 12 | 180 | 37.0 | 0.0 | 0.00 | 0.00 | 0.00 | 1015.0 | |
| 20260503045549 | 12 | 225 | 24.1 | 0.0 | 0.00 | 0.00 | 0.00 | 1015.1 | |
| 20260503044510 | 12 | 225 | 16.1 | 0.0 | 0.00 | 0.00 | 0.00 | 1015.3 | |
| 20260503043457 | 12 | 225 | 25.7 | 0.0 | 0.00 | 0.00 | 0.00 | 1015.2 | |
| 20260503042443 | 12 | 225 | 33.8 | 0.0 | 0.00 | 0.00 | 0.00 | 1015.1 | |
| 20260503041429 | 12 | 225 | 29.0 | 0.0 | 0.00 | 0.00 | 0.00 | 1015.1 | |
| 20260503040416 | 11 | 180 | 17.7 | 0.0 | 0.00 | 0.00 | 0.00 | 1015.1 | |
| 20260503032649 | 12 | 225 | 22.5 | 0.0 | 0.00 | 0.00 | 0.00 | 1015.2 | |
| 20260503031635 | 12 | 225 | 33.8 | 0.0 | 0.00 | 0.00 | 0.00 | 1015.2 | |
| 20260503030621 | 12 | 225 | 29.0 | 0.0 | 0.00 | 0.00 | 0.00 | 1015.1 | |
| 20260503025608 | 12 | 225 | 33.8 | 0.0 | 0.00 | 0.00 | 0.00 | 1015.2 | |
| 20260503024554 | 12 | 225 | 19.3 | 0.0 | 0.00 | 0.00 | 0.00 | 1015.4 |